Regional Weather Roundup
Issued by NWS Grand Forks, ND

Home | Current Version | Previous Version | Graphics & Text | Print | Product List | Glossary On
Versions: 1 2 3 4 5 6 7 8 9 10 11 12 13 14 15 16 17 18 19 20 21 22 23 24 25 26 27 28 29 30 31 32 33 34 35 36 37 38 39 40 41 42 43 44 45 46 47 48 49 50
000
ASUS43 KFGF 210610
RWRFGF
PRAIRIE TO PINES  WEATHER ROUNDUP
NATIONAL WEATHER SERVICE EASTERN NORTH DAKOTA/GRAND FORKS ND
100 AM CDT SUN SEP 21 2014

 **SATELLITE DATA USED TO AUGMENT SKY COVER AT AUTOMATED STATIONS**
 *****  WEATHER ACROSS EASTERN NORTH DAKOTA  *****

CITY           SKY/WX    TMP DP  RH WIND       PRES   REMARKS
GRAND FORKS    CLOUDY    54  50  86 NW7       29.98R
6HR MIN TEMP:  52; 6HR MAX TEMP:  61; 6HR PCP: TRACE;

GRAND FRKS AFB CLOUDY    53  51  94 N8        30.00R
GRAND FRKS NWS   N/A     54 N/A N/A NW6         N/A
DEVILS LAKE    MOCLDY    55  45  67 NW10      30.04R
6HR MIN TEMP:  55; 6HR MAX TEMP:  66;

FARGO          CLOUDY    55  49  80 NW10      29.99R
WAHPETON ARPT  MOCLDY    52  46  82 NW8       29.99R
$$

 ***** WEATHER ACROSS CENTRAL AND WESTERN NORTH DAKOTA  *****

CITY           SKY/WX    TMP DP  RH WIND       PRES   REMARKS
BISMARCK       CLEAR     55  41  59 NW9       30.15R
6HR MIN TEMP:  55; 6HR MAX TEMP:  69;

MINOT          CLEAR     54  40  59 W14       30.12R
6HR MIN TEMP:  54; 6HR MAX TEMP:  67;

JAMESTOWN      MOCLDY    56  46  69 NW12      30.06R
6HR MIN TEMP:  56; 6HR MAX TEMP:  65;

MINOT AFB      CLEAR     51  44  77 NW10      30.12R
GARRISON         N/A     51  41  68 NW10      30.14R
WILLISTON      CLEAR     52  37  56 W10       30.20R
6HR MIN TEMP:  51; 6HR MAX TEMP:  69;

DICKINSON      CLEAR     47  35  63 W6        30.21R
6HR MIN TEMP:  44; 6HR MAX TEMP:  67;

HETTINGER      CLEAR     41  34  76 W8        30.24R
6HR MIN TEMP:  41; 6HR MAX TEMP:  68;

$$

 *****  OTHER AIRPORT OBSERVATIONS IN OUR AREA  *****

CITY           SKY/WX    TMP DP  RH WIND       PRES   REMARKS
WALHALLA       FAIR      55  55 100 NW12      30.01R
GRAFTON AIRPOR FAIR      52  50  93 NW9       29.99R
VALLEY CITY AR FAIR      54  48  82 NW10      30.04R
CANDO          FAIR      50  46  87 NW8       30.06R
CAVALIER APRT  FAIR      54  50  87 NW9       30.00R
GWINNER        MOCLDY    57  45  62 NW14      30.04R
SHEYENNE NWR     N/A     54  46  75 NW5       29.95S
ROLLA          CLOUDY    54  46  76 NW9       30.08R
 ***** THE ABOVE OBSERVATIONS ARE NON NWS ARE NOT QUALITY
       CONTROLLED AND MAY MIS-REPORT RAIN FOR SNOW...
$$

  *****  WEATHER ACROSS NORTHERN MINNESOTA  *****

CITY           SKY/WX    TMP DP  RH WIND       PRES   REMARKS
FLAG ISLAND    LGT RAIN  52  48  87 W6        29.91S
WARROAD        DRIZZLE   50  46  87 W5        29.95R
ROSEAU         HVY RAIN  52  46  82 NW5       29.95R
HALLOCK        CLEAR     52  48  87 NW6       29.98R
THF RVR FALLS  MOCLDY    52  50  93 NW8       29.97R
6HR MIN TEMP:  52; 6HR MAX TEMP:  57;

BAUDETTE       LGT RAIN  50  47  89 NW7       29.92R
6HR MIN TEMP:  50; 6HR MAX TEMP:  53; 6HR PCP:  0.22;

WASKISH        RAIN      50  48  93 N5        29.93R
CROOKSTON      PTCLDY    52  50  93 NW7       29.99R
STEPHEN NDAWN    N/A     52  52 100 NW8         N/A
GREENBUSH NDAW   N/A     52  50  93 NW7         N/A
$$
  *****  WEATHER ACROSS CENTRAL AND WEST MINNESOTA  *****

CITY           SKY/WX    TMP DP  RH WIND       PRES   REMARKS
FOSSTON        CLOUDY    48  48 100 NW8       29.97R
BEMIDJI        CLOUDY    49  47  95 NW8       29.93R
PARK RAPIDS    PTCLDY    50  48  93 N9        29.92R
6HR MIN TEMP:  50; 6HR MAX TEMP:  57; 6HR PCP:  0.01;

ELBOW LAKE     FAIR      51  49  92 W8        29.97R
6HR MIN TEMP:  51; 6HR MAX TEMP:  61;

WADENA         CLEAR     50  48  93 NW8       29.93R
DETROIT LAKES  CLEAR     52  50  93 NW10      29.97R
MOORHEAD       MOCLDY    55  54  94 NW9       30.00R
FERGUS FALLS   PTCLDY    48  48 100 NW8       29.98R
MORRIS MN      NOT AVBL
STAPLES        PTCLDY    50  45  81 NW7       29.92R
$$
  *****  WEATHER ELSEWHERE ACROSS MINNESOTA  *****

CITY           SKY/WX    TMP DP  RH WIND       PRES   REMARKS
DULUTH         LGT RAIN  53  50  89 NW12      29.76R
6HR MIN TEMP:  53; 6HR MAX TEMP:  56; 6HR PCP:  0.56;

INTRNTL FALLS  LGT RAIN  50  48  93 NW9G21    29.88R
6HR MIN TEMP:  50; 6HR MAX TEMP:  56; 6HR PCP:  0.23;

ELY            DRIZZLE   52  50  93 N3        29.79R
CLOQUET        LGT RAIN  52  48  87 NW15G22   29.78R
WHEATON        PTCLDY    54  45  71 NW9       30.01R
BRAINERD       MOCLDY    51  47  86 NW16      29.90R
6HR MIN TEMP:  50; 6HR MAX TEMP:  57;

HIBBING        LGT RAIN  52  49  89 NW16      29.81R
6HR MIN TEMP:  52; 6HR MAX TEMP:  55; 6HR PCP:  0.56;

ALEXANDRIA     CLEAR     53  49  86 W12       29.95R
6HR MIN TEMP:  53; 6HR MAX TEMP:  60; 6HR PCP:  0.09;

SAINT CLOUD    CLEAR     56  49  77 NW9       29.88R
6HR MIN TEMP:  56; 6HR MAX TEMP:  63;

MINNEAPOLIS    PTCLDY    57  50  77 W12       29.85S
6HR MIN TEMP:  57; 6HR MAX TEMP:  60;

$$

  *****  WEATHER ACROSS SOUTH DAKOTA  *****

CITY           SKY/WX    TMP DP  RH WIND       PRES   REMARKS
SIOUX FALLS    CLEAR     56  46  69 W8        30.05R
6HR MIN TEMP:  56; 6HR MAX TEMP:  73;

BROOKINGS      NOT AVBL
WATERTOWN      CLEAR     57  43  59 NW14      30.03R
6HR MIN TEMP:  57; 6HR MAX TEMP:  63;

HURON          CLEAR     53  40  61 NW12      30.08R
6HR MIN TEMP:  52; 6HR MAX TEMP:  71;

SISSETON         N/A     59  45  59 N14       29.99R
ABERDEEN       CLEAR     57  41  55 NW14      30.08R
6HR MIN TEMP:  57; 6HR MAX TEMP:  67;

MITCHELL       CLEAR     56  43  61 NW10      30.10R
PIERRE         CLEAR     51  43  74 NW8       30.15R
6HR MIN TEMP:  50; 6HR MAX TEMP:  74;

MOBRIDGE       CLEAR     50  42  74 N8        30.13R
RAPID CITY     CLEAR     55  37  50 N10       30.28R
6HR MIN TEMP:  51; 6HR MAX TEMP:  72;

$$

  *****  SOME WEATHER IN NEARBY STATES *****

CITY           SKY/WX    TMP DP  RH WIND       PRES   REMARKS
GLASGOW MT     CLEAR     52  36  54 NW5       30.25R
6HR MIN TEMP:  50; 6HR MAX TEMP:  71;

GREAT FALLS MT CLEAR     54  42  64 E9        30.26S
6HR MIN TEMP:  53; 6HR MAX TEMP:  71;

CHEYENNE WY    MOCLDY    57  38  48 NE5       30.38S
6HR MIN TEMP:  57; 6HR MAX TEMP:  73;

SCOTTSBLUFF NE MOCLDY    55  42  61 CALM      30.31S
6HR MIN TEMP:  54; 6HR MAX TEMP:  79;

OMAHA NE       CLEAR     62  54  74 N6        30.07R
6HR MIN TEMP:  62; 6HR MAX TEMP:  80;

DES MOINES IA  CLEAR     62  51  67 N6        30.00S
6HR MIN TEMP:  62; 6HR MAX TEMP:  78;

DAVENPORT IA   PTCLDY    63  55  75 NW16G26   29.88R
6HR MIN TEMP:  63; 6HR MAX TEMP:  72;

CHICAGO IL     NOT AVBL
EAU CLAIRE WI  MOCLDY    56  49  77 W10       29.75F
6HR MIN TEMP:  55; 6HR MAX TEMP:  68; 6HR PCP:  0.17;

LA CROSSE WI   CLEAR     59  51  75 W10       29.80F
6HR MIN TEMP:  59; 6HR MAX TEMP:  71; 6HR PCP:  0.08;

$$

  *****  SOME NATIONAL WEATHER *****

CITY           SKY/WX    TMP DP  RH WIND       PRES   REMARKS
LA GUARDIA NY  LGT RAIN  68  64  87 CALM      30.01F
6HR MIN TEMP:  68; 6HR MAX TEMP:  70; 6HR PCP:  0.05;

RALEIGH NC     MOCLDY    65  61  87 N3        29.96F
6HR MIN TEMP:  65; 6HR MAX TEMP:  72;

ATLANTA GA     CLEAR     68  59  73 CALM      30.04F
6HR MIN TEMP:  67; 6HR MAX TEMP:  77;

NEW ORLEANS LA CLEAR     78  68  71 NE5       29.97F
6HR MIN TEMP:  78; 6HR MAX TEMP:  83;

OKLAHOMA CITY  PTCLDY    71  66  84 S6        30.03S
6HR MIN TEMP:  70; 6HR MAX TEMP:  84;

ALBUQUERQUE NM MOCLDY    73  53  49 E8        30.23R
6HR MIN TEMP:  73; 6HR MAX TEMP:  87;

SALT LAKE CITY CLOUDY    69  47  45 E10       30.08R
6HR MIN TEMP:  68; 6HR MAX TEMP:  82;

LOS ANGELES CA PTCLDY    68  63  84 W6        29.94R


USA.gov is the U.S. government's official web portal to all federal, state and local government web resources and services.